Location: Darlington Observatory
(36.4817°N, 105.8156°W)
Time: 16:55:48
(UTC-06:00)

Daily predictions for brighter satellites

Satellite Brightness Start Highest point End
(mag) Time Altitude Azimuth Time Altitude Azimuth Time Altitude Azimuth
USA 229 DEB 3.9 19:12:55 10° NNW 19:20:10 80° ENE 19:27:31 10° SE
USA 229 3.9 19:13:02 10° NNW 19:20:15 80° ENE 19:27:36 10° SE
Cosmos 2181 Rocket 4.0 19:15:57 10° N 19:22:02 58° E 19:28:02 10° SSE
Cosmos 2084 3.5 19:18:20 10° SW 19:22:28 75° WNW 19:26:25 10° NNE
Cosmos 1937 Rocket 3.6 19:18:11 10° N 19:23:27 62° ENE 19:28:38 10° SSE
Cosmos 2074 Rocket 4.3 19:26:45 10° SSE 19:32:31 43° E 19:38:18 10° NNE
NOSS 3-1 (C) 4.3 19:25:44 10° NNW 19:33:15 55° NE 19:41:30 10° SE
Cosmos 540 Rocket 4.1 19:28:50 10° SSE 19:33:17 31° E 19:37:45 10° NE
CZ-4 R/B 4.3 19:31:10 10° SSW 19:34:29 23° W 19:37:52 10° NW
Cosmos 2298 Rocket 4.0 19:29:34 10° NNW 19:34:56 82° ENE 19:40:15 10° SSE
Cosmos 1763 Rocket 3.6 19:30:37 10° SSW 19:35:42 83° WNW 19:40:54 10° NNE
Cosmos 1943 Rocket 2.6 19:31:15 10° NNW 19:36:49 70° WSW 19:42:24 10° SSE
Cosmos 2228 2.9 19:38:15 10° S 19:42:35 76° E 19:46:57 10° N
Lacrosse 5 4.4 19:39:35 10° WNW 19:43:18 21° WSW 19:46:59 10° SSW
Meteor 1-24 Rocket 4.2 19:38:23 10° N 19:44:00 42° ENE 19:49:26 10° SSE
SJ-6B 3.3 19:43:52 10° SE 19:47:38 39° ENE 19:51:19 10° N
FALCON 9 R/B 1.3 19:48:45 10° WSW 19:51:21 65° S 19:55:16 17° E
CZ-3 Stage 3 2.4 19:52:13 10° S 19:52:29 10° SSE 19:52:29 10° SSE
Resurs 01 Rocket 2.8 19:51:54 17° ESE 19:53:51 23° ENE 19:57:18 10° NNE
Cosmos 1812 Rocket 4.3 19:52:52 10° SSE 19:56:48 32° E 20:00:46 10° NNE
Cosmos 1356 Rocket 3.5 19:53:08 10° N 19:57:24 61° E 20:01:39 10° SSE
H-2A R/B 2.6 19:55:27 10° SSE 19:59:06 63° ENE 20:02:49 10° N
GP-B 4.1 19:55:38 10° NNE 19:59:18 25° E 20:01:04 19° ESE
BREEZE-M DEB (TANK) 4.2 20:01:04 10° S 20:01:43 12° SSE 20:01:43 12° SSE
Cosmos 2058 Rocket 3.8 19:58:47 10° SSW 20:03:02 55° W 20:07:21 10° N
Thor Agena Rocket 4.1 20:01:08 10° N 20:06:19 61° WNW 20:11:23 10° SSW
Spot 2 Rocket 4.3 20:05:05 22° ESE 20:07:12 30° ENE 20:11:32 10° N
FENGYUN 3A 4.3 20:04:33 10° S 20:09:48 57° W 20:15:05 10° NNW
Cosmos 2184 Rocket 4.0 20:03:58 10° S 20:10:15 86° E 20:16:39 10° N
Cosmos 1656 Rocket 3.7 20:05:22 10° NNW 20:11:01 86° WSW 20:16:34 10° SSE
Cosmos 836 Rocket 4.4 20:06:10 10° SSW 20:11:26 81° ESE 20:16:43 10° NNE
Cosmos 292 Rocket 4.3 20:11:27 10° SSE 20:15:48 35° E 20:20:13 10° NE
Cosmos 1610 Rocket 4.5 20:10:03 10° S 20:16:19 67° E 20:22:39 10° NNE
Meteor 2-19 Rocket 4.4 20:11:17 10° S 20:17:10 58° E 20:23:05 10° NNE
ISS -3.9 20:16:00 10° SW 20:19:14 67° SE 20:19:46 54° E
Cosmos 1766 3.5 20:16:19 10° SSW 20:20:14 72° W 20:24:09 10° N
Cosmos 1544 3.1 20:18:53 10° S 20:22:29 79° W 20:26:06 10° N
Meteor 1-22 Rocket 4.4 20:17:13 10° SSW 20:22:57 75° W 20:28:30 10° N
OAO 3 Copernicus 4.3 20:20:14 10° W 20:25:18 77° S 20:27:10 39° ESE
COSMOS 2406 3.6 20:19:54 10° SSW 20:25:33 67° WNW 20:31:17 10° NNE
Cosmos 1356 4.2 20:27:29 10° N 20:30:01 38° NNE 20:30:01 38° NNE
Cosmos 1758 3.3 20:35:14 59° ENE 20:35:14 59° ENE 20:38:57 10° NNE
Cosmos 1125 Rocket 3.4 20:29:41 10° NNW 20:35:00 73° ENE 20:37:25 33° SSE
Cosmos 1674 4.5 20:31:37 10° NNE 20:32:59 19° NNE 20:32:59 19° NNE
MOS 1-B Rocket 3.9 20:33:41 25° SE 20:37:16 60° ENE 20:42:52 10° N
Cosmos 372 Rocket 3.9 20:33:51 10° NNW 20:39:06 70° ENE 20:40:50 42° SE
Envisat 3.0 20:38:12 45° ESE 20:39:26 57° ENE 20:44:25 10° N
In-Cosmos 22 4.4 20:35:14 10° NNW 20:40:56 74° W 20:46:40 10° S
BREEZE M DEB (TANK) 2.5 20:36:34 10° NW 20:41:48 74° NNE 20:41:48 74° NNE
Meteor 1-21 Rocket 4.4 20:39:04 10° N 20:44:36 49° ENE 20:45:01 48° E
Cosmos 962 Rocket 4.4 20:45:32 10° S 20:51:50 72° E 20:58:12 10° N
GEOS 3 Rocket 4.2 20:53:11 42° SSE 20:53:11 42° SSE 20:57:04 10° SSW
Cosmos 1805 4.2 20:49:48 10° SSW 20:53:33 47° W 20:57:20 10° N
SL-27 R/B 3.8 20:55:25 10° SSW 21:03:38 - N 20:57:55 37° WSW
CZ-2D R/B 4.3 20:58:42 36° SW 20:59:34 42° W 21:03:12 10° NNW
Resurs 1-3 4.1 21:05:33 54° SW 21:06:02 58° W 21:10:22 10° NNW
ATLAS 2AS CENTAUR R/B 3.7 20:59:16 10° NNW 21:06:27 35° NE 21:07:05 34° NE
Milstar 3 Cent rocket 3.3 21:08:07 10° WSW 21:11:01 26° SSW 21:11:01 26° SSW
Cosmos 2278 4.5 21:11:00 10° N 21:15:00 39° NNE 21:15:00 39° NNE
Cosmos 1953 4.4 21:28:52 24° NW 21:28:52 24° NW 21:30:57 10° NNW
Cosmos 2341 Rocket 4.4 21:21:45 10° SSW 21:27:51 59° W 21:34:00 10° N
Resurs 01 Rocket 3.4 21:29:29 27° WSW 21:30:09 28° W 21:33:59 10° NW
Cosmos 1697 Rocket 4.3 21:33:19 10° N 21:35:53 25° N 21:35:53 25° N
Cosmos 1980 Rocket 4.3 21:35:25 10° N 21:36:53 16° NNE 21:36:53 16° NNE
ATLAS 2AS CENTAUR R/B 4.3 22:50:10 10° NW 22:54:31 33° WNW 22:54:31 33° WNW
